TimePST,TemperatureF,Dew PointF,Humidity,Sea Level PressureIn,VisibilityMPH,Wind Direction,Wind SpeedMPH,Gust SpeedMPH,PrecipitationIn,Events,Conditions,WindDirDegrees,DateUTC
12:53 AM,46.9,39.9,77,29.93,10.0,Calm,Calm,-,N/A,,Clear,0,2013-11-04 08:53:00
1:53 AM,46.0,39.9,79,29.94,10.0,Calm,Calm,-,N/A,,Clear,0,2013-11-04 09:53:00
2:53 AM,44.1,39.0,82,29.93,10.0,Calm,Calm,-,N/A,,Clear,0,2013-11-04 10:53:00
3:53 AM,44.1,39.0,82,29.93,10.0,Calm,Calm,-,N/A,,Clear,0,2013-11-04 11:53:00
4:53 AM,43.0,36.0,76,29.94,10.0,Calm,Calm,-,N/A,,Clear,0,2013-11-04 12:53:00
5:53 AM,42.1,37.0,82,29.97,10.0,Calm,Calm,-,N/A,,Clear,0,2013-11-04 13:53:00
6:53 AM,43.0,37.9,82,29.98,10.0,Calm,Calm,-,N/A,,Clear,0,2013-11-04 14:53:00
7:53 AM,48.0,39.9,74,30.01,10.0,Calm,Calm,-,N/A,,Clear,0,2013-11-04 15:53:00
8:53 AM,54.0,37.9,55,30.01,10.0,West,9.2,-,N/A,,Clear,270,2013-11-04 16:53:00
9:53 AM,57.0,37.0,47,30.02,10.0,West,13.8,-,N/A,,Clear,280,2013-11-04 17:53:00
10:53 AM,59.0,32.0,36,30.01,10.0,West,15.0,-,N/A,,Clear,280,2013-11-04 18:53:00
11:53 AM,62.1,28.0,28,29.98,10.0,West,11.5,-,N/A,,Clear,270,2013-11-04 19:53:00
12:53 PM,64.0,28.0,26,29.97,10.0,West,11.5,-,N/A,,Partly Cloudy,280,2013-11-04 20:53:00
1:53 PM,64.9,26.1,23,29.96,10.0,WNW,16.1,-,N/A,,Partly Cloudy,290,2013-11-04 21:53:00
2:53 PM,66.0,26.1,22,29.95,10.0,West,13.8,-,N/A,,Partly Cloudy,280,2013-11-04 22:53:00
3:53 PM,66.0,28.0,24,29.96,10.0,NW,11.5,18.4,N/A,,Clear,320,2013-11-04 23:53:00
4:53 PM,63.0,37.0,38,29.97,10.0,NNW,8.1,-,N/A,,Clear,330,2013-11-05 00:53:00
5:53 PM,59.0,39.0,48,29.99,10.0,West,9.2,-,N/A,,Clear,280,2013-11-05 01:53:00
6:53 PM,55.9,39.0,53,30.02,10.0,WNW,6.9,-,N/A,,Clear,300,2013-11-05 02:53:00
7:53 PM,55.9,39.9,55,30.02,10.0,Calm,Calm,-,N/A,,Partly Cloudy,0,2013-11-05 03:53:00
8:53 PM,54.0,39.9,59,30.04,10.0,NW,3.5,-,N/A,,Clear,320,2013-11-05 04:53:00
9:53 PM,53.1,39.9,61,30.05,10.0,NW,5.8,-,N/A,,Clear,320,2013-11-05 05:53:00
10:53 PM,55.0,36.0,49,30.05,10.0,West,4.6,-,N/A,,Clear,260,2013-11-05 06:53:00
11:53 PM,52.0,39.0,61,30.07,10.0,Calm,Calm,-,N/A,,Clear,0,2013-11-05 07:53:00